Waarnemingen

Advertentie
Mijn weer
Holmon, Zweden (2287): temperatuur & dauwpunt: 20.05.2020 23:00:00 - 26.05.2020 23:00:00 (CEST)Holmon, Zweden (2287): windsnelheid & windstoten: 20.05.2020 23:00:00 - 26.05.2020 23:00:00 (CEST)Holmon, Zweden (2287): windrichting: 20.05.2020 23:00:00 - 26.05.2020 23:00:00 (CEST)Holmon, Zweden (2287): luchtdruk: 20.05.2020 23:00:00 - 26.05.2020 23:00:00 (CEST)Holmon, Zweden (2287): zicht: 20.05.2020 23:00:00 - 26.05.2020 23:00:00 (CEST)Holmon, Zweden (2287): neerslag: 20.05.2020 23:00:00 - 26.05.2020 23:00:00 (CEST)
Datum & Tijd tt [°C] td [°C] ff [km/u] ff [kn] fx [km/u] fx [kn] dd ppp [hPa] vv [km] rr [mm]
26.05.2020 23:00:00 9,5 7,3 19 10 31 17 ZZW 1025,4 20 0,0
26.05.2020 22:00:00 10,2 7,3 19 10 29 16 ZZW 1025,9 21 0,0
26.05.2020 21:00:00 10,8 6,9 21 12 29 16 ZW 1026,4 22 0,0
26.05.2020 20:00:00 11,5 7,0 20 11 31 17 ZZW 1026,8 24 0,0
26.05.2020 19:00:00 12,8 7,0 22 12 31 17 ZW 1027,3 26 0,0
26.05.2020 18:00:00 13,9 6,5 22 12 31 17 ZW 1027,7 26 0,0
26.05.2020 17:00:00 15,5 6,2 19 11 34 18 ZZW 1028,3 34 0,0
26.05.2020 16:00:00 15,5 5,7 21 12 31 17 ZW 1028,9 32 0,0
26.05.2020 15:00:00 16,5 5,1 18 10 29 16 ZW 1029,3 27 0,0
26.05.2020 14:00:00 15,9 6,1 20 11 28 15 ZW 1029,9 22 0,0
26.05.2020 13:00:00 17,4 5,3 18 10 26 14 ZZW 1030,1 29 0,0
26.05.2020 12:00:00 19,7 4,8 12 7 23 13 ZZW 1030,3 29 0,0
26.05.2020 11:00:00 17,0 6,5 13 7 19 11 ZW 1030,7 27 0,0
26.05.2020 10:00:00 15,5 7,0 6 3 10 6 ZW 1031,0 23 0,0
26.05.2020 09:00:00 13,6 7,2 7 4 9 5 ZW 1031,1 30 0,0
26.05.2020 08:00:00 12,7 6,3 6 4 8 5 ZW 1031,0 25 0,0
26.05.2020 07:00:00 11,8 5,9 6 4 11 6 WZW 1031,0 31 0,0
26.05.2020 06:00:00 10,4 5,4 4 2 6 3 WZW 1030,7 30 0,0
26.05.2020 05:00:00 9,2 5,4 3 1 8 4 W 1030,4 29 0,0
26.05.2020 04:00:00 8,0 6,0 5 3 14 8 WZW 1030,2 24 0,0
26.05.2020 03:00:00 8,1 6,1 10 5 13 7 WZW 1030,2 23 0,0
26.05.2020 02:00:00 8,9 6,5 9 5 11 6 ZW 1030,1 22 0,0
26.05.2020 01:00:00 9,6 6,5 9 5 16 9 ZW 1029,9 24 0,0
26.05.2020 00:00:00 10,2 6,0 13 7 21 11 ZW 1029,7 25 0,0
25.05.2020 23:00:00 11,1 6,0 17 9 22 12 ZW 1029,4 24 0,0
25.05.2020 22:00:00 11,5 6,2 12 6 16 9 ZW 1029,2 26 0,0
25.05.2020 21:00:00 12,7 6,1 10 5 18 10 ZW 1029,0 24 0,0
25.05.2020 20:00:00 12,5 6,1 15 8 23 12 ZW 1028,6 25 0,0
25.05.2020 19:00:00 12,8 6,4 15 8 27 15 ZW 1028,2 23 0,0
25.05.2020 18:00:00 13,9 6,3 16 8 23 12 ZW 1027,8 31 0,0
25.05.2020 17:00:00 14,7 6,3 12 6 27 15 ZW 1027,6 27 0,0
25.05.2020 16:00:00 - - - - 24 13 - - - -
25.05.2020 15:00:00 13,6 6,7 16 8 24 13 ZW 1027,1 26 0,0
25.05.2020 14:00:00 13,5 7,3 18 10 26 14 WZW 1027,0 24 0,0
25.05.2020 13:00:00 13,3 7,5 15 8 20 11 WZW 1026,5 23 0,0
25.05.2020 12:00:00 13,0 7,2 6 3 9 5 W 1026,2 27 0,0
25.05.2020 11:00:00 14,2 6,5 4 2 9 5 NW 1025,7 26 0,0
25.05.2020 10:00:00 14,3 7,1 2 1 7 4 W 1025,2 25 0,0
25.05.2020 09:00:00 12,7 6,9 4 2 6 3 NW 1024,5 24 0,0
25.05.2020 08:00:00 11,4 6,5 3 2 9 5 W 1024,1 25 0,0
25.05.2020 07:00:00 9,1 6,9 6 3 10 5 W 1023,7 24 0,0
25.05.2020 06:00:00 6,5 6,2 6 3 12 7 WNW 1023,3 13 0,0
25.05.2020 05:00:00 5,9 5,8 3 2 8 4 NW 1022,7 8 0,0
25.05.2020 04:00:00 5,9 5,6 5 3 10 5 W 1022,0 4,7 0,0
25.05.2020 03:00:00 5,8 5,5 9 5 12 7 WZW 1021,4 5 0,0
25.05.2020 02:00:00 6,3 5,9 10 5 14 8 ZW 1020,9 11 0,0
25.05.2020 01:00:00 6,8 6,1 7 4 11 6 ZZW 1020,6 17 0,0
25.05.2020 00:00:00 6,6 5,7 5 3 8 5 ZZW 1020,0 18 0,0
24.05.2020 23:00:00 7,1 5,6 6 3 16 8 ZZW 1019,7 23 0,0
24.05.2020 22:00:00 7,8 5,8 8 4 17 9 ZO 1019,0 25 0,0
24.05.2020 21:00:00 9,1 6,0 8 4 16 9 OZO 1018,6 26 0,0
24.05.2020 20:00:00 10,0 6,2 6 3 13 7 ZW 1018,0 27 0,0
24.05.2020 19:00:00 11,2 6,3 6 3 9 5 WZW 1017,3 29 0,0
24.05.2020 18:00:00 11,5 6,0 6 3 10 5 WZW 1017,2 31 0,0
24.05.2020 17:00:00 11,3 6,6 7 4 13 7 WZW 1017,1 29 0,0
24.05.2020 16:00:00 9,3 7,1 7 4 14 7 WZW 1016,7 19 0,0
24.05.2020 15:00:00 8,7 6,8 12 6 21 11 ZW 1016,6 22 0,0
24.05.2020 14:00:00 8,6 6,6 16 9 27 15 ZW 1016,3 24 0,0
24.05.2020 13:00:00 9,8 6,1 13 7 23 13 ZZW 1016,0 28 0,0
24.05.2020 12:00:00 9,4 3,8 3 1 13 7 N 1015,5 27 0,0
24.05.2020 11:00:00 10,9 4,1 5 3 20 11 ZW 1015,2 32 0,1
24.05.2020 10:00:00 10,0 2,6 10 6 26 14 ZZO 1015,1 24 0,0
24.05.2020 09:00:00 7,5 3,4 20 11 31 17 O 1014,7 26 0,0
24.05.2020 08:00:00 7,1 3,9 21 12 31 17 ONO 1015,0 25 0,0
24.05.2020 07:00:00 6,7 3,8 24 13 29 16 ONO 1015,0 24 0,0
24.05.2020 06:00:00 7,4 3,8 13 7 15 8 O 1015,5 28 0,0
24.05.2020 05:00:00 6,8 4,3 8 4 10 6 OZO 1015,8 28 0,0
24.05.2020 04:00:00 6,4 4,2 6 3 10 5 OZO 1016,1 27 0,0
24.05.2020 03:00:00 6,9 4,2 6 3 13 7 ZZO 1016,7 26 0,0
24.05.2020 02:00:00 6,4 4,6 5 3 9 5 ZO 1017,2 22 0,0
24.05.2020 01:00:00 6,5 4,7 5 3 11 6 Z 1017,3 23 0,0
24.05.2020 00:00:00 6,3 4,8 8 4 12 7 Z 1017,5 22 0,0
23.05.2020 23:00:00 6,4 4,4 6 3 9 5 ZZO 1016,9 21 0,0
23.05.2020 22:00:00 6,8 4,3 6 3 17 9 ZZW 1016,8 23 0,0
23.05.2020 21:00:00 7,5 4,6 11 6 25 14 ZW 1016,6 21 0,0
23.05.2020 20:00:00 8,0 4,0 16 9 31 17 ZW 1016,7 24 0,0
23.05.2020 19:00:00 8,5 3,9 20 11 32 18 ZW 1016,7 28 0,0
23.05.2020 18:00:00 9,2 3,4 21 11 29 16 ZW 1017,0 28 0,0
23.05.2020 17:00:00 10,5 4,2 19 11 39 21 ZW 1017,4 27 0,0
23.05.2020 16:00:00 11,1 2,4 24 13 45 24 ZW 1017,7 26 0,0
23.05.2020 15:00:00 12,0 2,4 31 17 49 26 ZW 1018,1 26 0,0
23.05.2020 14:00:00 11,9 2,9 23 13 46 25 ZZW 1018,4 24 0,0
23.05.2020 13:00:00 12,1 2,5 24 13 48 26 ZZW 1018,5 29 0,0
23.05.2020 12:00:00 12,3 1,9 29 16 47 25 ZZW 1018,8 27 0,0
23.05.2020 11:00:00 12,8 0,8 19 11 41 22 Z 1018,6 31 0,0
23.05.2020 10:00:00 12,6 0,0 24 13 41 22 Z 1018,8 25 0,0
23.05.2020 09:00:00 12,2 -0,3 19 10 37 20 Z 1018,6 33 0,0
23.05.2020 08:00:00 11,3 -0,2 22 12 40 21 Z 1018,8 29 0,0
23.05.2020 07:00:00 11,9 -1,3 16 9 32 17 Z 1018,7 33 0,0
23.05.2020 06:00:00 10,4 -2,6 13 7 32 17 Z 1019,3 31 0,0
23.05.2020 05:00:00 7,9 -0,3 8 4 18 10 Z 1019,6 34 0,0
23.05.2020 04:00:00 6,3 -0,9 11 6 18 10 Z 1020,0 32 0,0
23.05.2020 03:00:00 5,7 -0,4 11 6 17 9 Z 1020,4 33 0,0
23.05.2020 02:00:00 5,8 -0,1 11 6 17 9 Z 1020,7 32 0,0
23.05.2020 01:00:00 5,9 0,0 11 6 16 9 Z 1021,3 29 0,0
23.05.2020 00:00:00 5,7 0,1 10 5 15 8 Z 1021,5 32 0,0
22.05.2020 23:00:00 5,6 0,0 8 5 13 7 Z 1021,8 21 0,0
22.05.2020 22:00:00 6,5 -0,9 8 4 12 7 Z 1021,8 29 0,0
22.05.2020 21:00:00 8,7 -1,4 8 4 16 9 ZZW 1022,2 29 0,0
22.05.2020 20:00:00 10,4 -2,3 10 5 21 12 ZZW 1022,5 32 0,0
22.05.2020 19:00:00 12,1 -3,5 9 5 20 11 ZZW 1022,6 30 0,0
22.05.2020 18:00:00 13,0 -0,3 11 6 18 10 WZW 1023,3 32 0,0
22.05.2020 17:00:00 11,8 -0,1 7 4 12 7 W 1023,8 29 0,0
22.05.2020 16:00:00 12,8 1,8 10 6 14 8 WNW 1024,6 32 0,0
22.05.2020 15:00:00 13,6 -2,5 4 2 13 7 WNW 1025,1 28 0,0
22.05.2020 14:00:00 12,8 2,3 9 5 23 12 W 1025,6 30 0,0
22.05.2020 13:00:00 13,5 -3,6 13 7 20 11 OZO 1026,0 34 0,0
22.05.2020 12:00:00 11,2 -2,3 8 4 19 10 W 1026,5 26 0,0
22.05.2020 11:00:00 13,2 -2,8 13 7 18 10 O 1026,5 25 0,0
22.05.2020 10:00:00 12,0 -1,2 10 5 13 7 ONO 1026,7 25 0,0
22.05.2020 09:00:00 11,3 -0,2 9 5 12 7 ONO 1027,0 30 0,0
22.05.2020 08:00:00 9,8 -0,7 5 3 9 5 NO 1027,1 30 0,0
22.05.2020 07:00:00 9,2 1,4 3 2 5 3 NO 1027,2 27 0,0
22.05.2020 06:00:00 7,4 1,3 0 0 5 3 N 1027,2 26 0,0
22.05.2020 05:00:00 4,0 1,4 3 1 5 3 N 1027,2 23 0,0
22.05.2020 04:00:00 2,1 1,2 3 1 5 3 NNO 1027,0 20 0,0
22.05.2020 03:00:00 1,8 -0,1 3 2 5 3 NO 1027,1 22 0,0
22.05.2020 02:00:00 2,1 -1,9 3 2 4 2 NO 1026,8 28 0,0
22.05.2020 01:00:00 2,5 -1,8 0 0 4 2 N 1026,6 28 0,0
22.05.2020 00:00:00 3,0 -5,6 4 2 4 2 ONO 1026,5 31 0,0
21.05.2020 23:00:00 3,0 -0,5 3 2 4 2 NNO 1026,5 28 0,0
21.05.2020 22:00:00 3,6 0,3 4 2 7 4 O 1026,4 20 0,0
21.05.2020 21:00:00 5,1 1,6 4 2 7 4 NNO 1026,2 23 0,0
21.05.2020 20:00:00 6,6 1,1 5 3 9 5 NNO 1026,2 24 0,0
21.05.2020 19:00:00 7,5 1,1 8 4 12 6 NO 1026,0 27 0,0
21.05.2020 18:00:00 9,1 0,3 7 4 12 6 NO 1026,1 28 0,0
21.05.2020 17:00:00 10,9 -0,8 8 4 20 11 ONO 1026,2 27 0,0
21.05.2020 16:00:00 10,9 -0,3 13 7 23 13 ONO 1026,0 25 0,0
21.05.2020 15:00:00 11,4 -1,2 16 9 24 13 O 1026,0 28 0,0
21.05.2020 14:00:00 11,6 -0,2 17 9 24 13 ONO 1026,0 21 0,0
21.05.2020 13:00:00 11,9 0,6 14 8 22 12 ONO 1026,0 26 0,0
21.05.2020 12:00:00 11,7 0,5 15 8 20 11 ONO 1026,0 28 0,0
21.05.2020 11:00:00 11,0 1,0 16 9 21 12 ONO 1026,0 29 0,0
21.05.2020 10:00:00 10,2 1,3 11 6 19 10 ONO 1025,9 27 0,0
21.05.2020 09:00:00 8,4 1,1 10 6 14 8 ONO 1025,7 28 0,0
21.05.2020 08:00:00 9,0 2,1 5 3 8 5 NO 1025,4 32 0,0
21.05.2020 07:00:00 7,4 1,9 3 2 5 3 NO 1025,2 28 0,0
21.05.2020 06:00:00 7,4 1,9 3 2 5 3 NO 1025,1 24 0,0
21.05.2020 05:00:00 3,7 0,6 0 0 8 5 N 1025,0 24 0,0
21.05.2020 04:00:00 2,1 -0,3 0 0 13 7 N 1024,9 23 0,0
21.05.2020 03:00:00 2,8 -1,4 0 0 8 4 N 1024,7 30 0,0
21.05.2020 02:00:00 2,6 -1,0 5 3 10 5 W 1024,6 29 0,0
21.05.2020 01:00:00 3,0 0,7 2 1 7 4 W 1024,6 24 0,0
21.05.2020 00:00:00 2,9 1,3 5 3 10 6 WNW 1024,3 22 0,0
20.05.2020 23:00:00 3,8 1,0 4 2 11 6 WZW 1024,1 23 0,0

tt = temperatuur
td = dauwpunt
ff = windsnelheid
fx = windstoten
dd = windrichting
ppp = luchtdruk
vv = zicht
rr = neerslag

Weerstations in de omgeving